Location: Limerick
(52.6650°N, 8.6230°W)
Time: 19:48:33
(UTC+01:00)

ISS - Pass Details

Date: 25 July 2017
Orbit: 400 x 408 km, 51.6° (Epoch: 21 July)

Event Time Altitude Azimuth Distance (km) Brightness Sun altitude
Rises 00:38:59 0° 258° (WSW) 2,310 0.1 -16.4°
Reaches altitude 10° 00:41:04 10° 256° (WSW) 1,452 -1.0 -16.5°
Maximum altitude 00:44:18 70° 173° (S) 431 -4.0 -16.6°
Drops below altitude 10° 00:47:33 10° 89° (E) 1,455 -1.1 -16.7°
Sets 00:49:38 0° 87° (E) 2,316 -0.1 -16.8°
